Jackson, TN

10:38 PM CST on November 21, 2019 (GMT -0600)
McKellar-Sipes Regional

Weather History for KMKL - July, 2019

Change the Weather History Date:

Tuesday, July 23, 2019

  Actual Average Record
Temperature  
Mean Temperature 72 °F 80 °F  
Max Temperature 81 °F 91 °F 101 °F (1952)
Min Temperature 62 °F 69 °F 56 °F (2007)
Degree Days  
Heating Degree Days 0 0  
Month to date heating degree days 0 0  
Since 1 June heating degree days 1 2  
Since 1 July heating degree days 0 0  
Cooling Degree Days 7 15  
Month to date cooling degree days 367 338  
Year to date cooling degree days 948 892  
Since 1 June cooling degree days 688 677  
Growing Degree Days 22 (Base 50)    
Moisture  
Dew Point 62 °F    
Average Humidity 76    
Maximum Humidity 100    
Minimum Humidity 51    
Precipitation  
Precipitation 0.00 in 0.15 in 1.35 in (1960)
Month to date precipitation 9.87 3.38  
Year to date precipitation 42.69 31.76  
Sea Level Pressure  
Sea Level Pressure 30.05 in    
Wind  
Wind Speed 10 mph (NNE)    
Max Wind Speed 20 mph    
Max Gust Speed 26 mph    
Visibility 10 miles    
Events      
T = Trace of Precipitation, MM = Missing Value Source: NWS Daily Summary

Daily Weather History Graph

Daily Weather History Graph

Search for Another Location

Airport or City:

Astronomy

Jul. 23, 2019 Rise Set
Actual Time 5:56 AM CDT 8:06 PM CDT
Civil Twilight 5:28 AM CDT 8:35 PM CDT
Nautical Twilight 4:53 AM CDT 9:10 PM CDT
Astronomical Twilight 4:14 AM CDT 9:48 PM CDT
Moon No Moon Rise 11:58 AM CDT (7/23)
Length of Visible Light 15h 07m
Length of Day
14h 10m
Waning Gibbous, 63% of the Moon is Illuminated
Jul 23
Waning Gibbous
Jul 24
Last Quarter
Jul 31
New
Aug 7
First Quarter
Aug 15
Full

Hourly Weather History & Observations

Time (CDT) Temp. Heat Index Dew Point Humidity Pressure Visibility Wind Dir Wind Speed Gust Speed Precip Events Conditions
12:53 AM 71.1 °F - 66.9 °F 87% 30.00 in 10.0 mi North 6.9 mph - N/A   Overcast
1:53 AM 70.0 °F - 66.9 °F 90% 30.00 in 10.0 mi North 6.9 mph - N/A   Mostly Cloudy
2:53 AM 68.0 °F - 66.0 °F 93% 30.00 in 10.0 mi NNW 6.9 mph - N/A   Partly Cloudy
3:53 AM 66.9 °F - 66.0 °F 97% 30.01 in 10.0 mi North 9.2 mph - N/A   Clear
4:53 AM 66.9 °F - 64.9 °F 93% 30.01 in 10.0 mi North 10.4 mph - N/A   Clear
5:53 AM 66.0 °F - 64.0 °F 93% 30.03 in 10.0 mi North 10.4 mph - N/A   Clear
6:53 AM 66.0 °F - 64.0 °F 93% 30.05 in 10.0 mi North 10.4 mph - N/A   Clear
7:53 AM 69.1 °F - 62.1 °F 78% 30.06 in 10.0 mi North 11.5 mph - N/A   Clear
8:53 AM 71.1 °F - 61.0 °F 70% 30.07 in 10.0 mi North 12.7 mph - N/A   Clear
9:53 AM 72.0 °F - 60.1 °F 66% 30.08 in 10.0 mi NNE 16.1 mph - N/A   Clear
10:53 AM 73.9 °F - 61.0 °F 64% 30.08 in 10.0 mi North 13.8 mph - N/A   Clear
11:53 AM 75.9 °F - 62.1 °F 62% 30.08 in 10.0 mi NNE 12.7 mph - N/A   Clear
12:53 PM 77.0 °F - 62.1 °F 60% 30.07 in 10.0 mi NE 11.5 mph 21.9 mph N/A   Partly Cloudy
1:53 PM 79.0 °F - 63.0 °F 58% 30.07 in 10.0 mi North 13.8 mph - N/A   Scattered Clouds
2:53 PM 79.0 °F - 63.0 °F 58% 30.06 in 10.0 mi NE 15.0 mph 23.0 mph N/A   Scattered Clouds
3:53 PM 80.1 °F 81.1 °F 61.0 °F 52% 30.05 in 10.0 mi NNE 13.8 mph 23.0 mph N/A   Mostly Cloudy
4:53 PM 80.1 °F 81.1 °F 61.0 °F 52% 30.04 in 10.0 mi NNE 13.8 mph - N/A   Mostly Cloudy
5:53 PM 77.0 °F - 61.0 °F 58% 30.04 in 10.0 mi NNE 11.5 mph - N/A   Clear
6:53 PM 77.0 °F - 59.0 °F 54% 30.04 in 10.0 mi North 12.7 mph - N/A   Clear
7:53 PM 73.0 °F - 59.0 °F 61% 30.06 in 10.0 mi North 9.2 mph - N/A   Clear
8:53 PM 68.0 °F - 60.1 °F 76% 30.08 in 10.0 mi North 5.8 mph - N/A   Clear
9:53 PM 64.0 °F - 61.0 °F 90% 30.09 in 10.0 mi Calm Calm - N/A   Clear
10:53 PM 63.0 °F - 61.0 °F 93% 30.09 in 10.0 mi Calm Calm - N/A   Clear
11:53 PM 62.1 °F - 61.0 °F 96% 30.09 in 10.0 mi Calm Calm - N/A   Clear